Regional Weather Roundup
Issued by NWS

Home | Current Version | Previous Version | Graphics & Text | Print | Product List | Glossary On
Versions: 1 2 3 4 5 6 7 8 9 10 11 12 13 14 15 16 17 18 19 20 21 22 23 24 25 26 27 28 29 30 31 32 33 34 35 36 37 38 39 40 41 42 43 44 45 46 47 48 49 50
000
ASUS43 KTOP 281559
RWRKS

WEATHER ROUNDUP FOR KANSAS
NATIONAL WEATHER SERVICE GOODLAND KS
1100 AM CDT THU AUG 28 2014

NOTE:  "FAIR" INDICATES FEW OR NO CLOUDS BELOW 12,000 FEET WITH NO
SIGNIFICANT WEATHER AND/OR OBSTRUCTIONS TO VISIBILITY.

KSZ001>006-013>018-027>032-041>047-281700-
NORTHWEST KANSAS

CITY           SKY/WX    TMP DP  RH WIND       PRES   REMARKS
GOODLAND       MOSUNNY   72  61  68 NW14      30.03S
HAYS           PTSUNNY   79  64  61 S17       29.92R
HILL CITY      CLOUDY    68  64  87 N9        29.95S
RUSSELL        CLOUDY    80  66  62 S21G29    29.89R
$$

KSZ061>065-074>080-084>089-281700-
SOUTHWEST KANSAS

CITY           SKY/WX    TMP DP  RH WIND       PRES   REMARKS
DODGE CITY     PTSUNNY   73  63  70 SW12      29.94R
ELKHART          N/A     71  57  61 NW8         N/A
GARDEN CITY    CLOUDY    68  62  81 N16       29.97R
GREAT BEND     CLOUDY    81  64  57 S26       29.91S
LIBERAL        MOSUNNY   75  61  60 NW15G22   30.00S
$$

KSZ066>073-081>083-090>101-281700-
SOUTHEAST KANSAS

CITY           SKY/WX    TMP DP  RH WIND       PRES   REMARKS
CHANUTE        SUNNY     86  66  51 S12       29.99F
COFFEYVILLE    MOSUNNY   86  67  52 S12       29.99S
HUTCHINSON     PTSUNNY   72  68  87 SE13      29.95F
NEWTON         CLOUDY    73  64  73 SW7       30.01S
PARSONS        SUNNY     87  67  51 SW10      30.01S
WICHITA INTL   LGT RAIN  80  65  59 S8        29.96F
WICHITA JABRA  PTSUNNY   82  65  56 S10       29.97S
WINFIELD       MOSUNNY   87  64  46 S14G23    29.98S
$$

KSZ007>012-019>026-033>040-048>060-102>105-281700-
NORTHEAST KANSAS

CITY           SKY/WX    TMP DP  RH WIND       PRES   REMARKS
CONCORDIA      MOSUNNY   76  70  82 S13       29.92S
EMPORIA        MOSUNNY   86  67  52 S13       29.98S
LAWRENCE       MOSUNNY   91  70  49 SW9       29.97S HX  96
MANHATTAN      CLOUDY    76  71  85 E5        29.95F
OLATHE IND     SUNNY     88  70  55 SW14      29.99S
OLATHE EXE     SUNNY     84  71  65 SW6       29.99S
SALINA         PTSUNNY   75  69  81 S16       29.94S
TOPEKA BILLARD SUNNY     87  70  56 SW7       29.96F
TOPEKA FORBES  SUNNY     89  67  47 SW12      29.97S
$$


USA.gov is the U.S. government's official web portal to all federal, state and local government web resources and services.